Aérodrome :
LOGIN :

S'inscrire | Disclaimer

   EN    FR    IT 

 










Légende :    VFR   VFR Marginal   IFR   IFR Intensif   IFR Très Intensif
Visi : 
Plafond : 
>= 8 km
>= 3000ft
5 à 8 km
1000 à 3000 ft
1500m à 5 km
500 à 1000 ft
800 à 1500m
200 à 500 ft
< 800m
< 200 ft
Symboles :   Orages  Brouillard  Fortes neiges  Fortes précipitations  Vent > 20 kt
SIGMETs :   Divers  Orages  Givrage  Turbulence  Onde Orograph.  Cendres Volcan.







- Altitude de l'aérodrome : 1234 ft
- Code IATA : LUX


ELLX - Luxembourg Findel

DERNIER METAR :
  • 231720Z 26015KT CAVOK 11/05 Q1025 NOSIG

METARs EXPIRÉS :
  • 231650Z 26014KT CAVOK 11/06 Q1025 NOSIG
  • 231620Z 26013KT CAVOK 11/05 Q1025 NOSIG
  • 231550Z 27014KT CAVOK 12/05 Q1025 TEMPO 27015G25KT
  • 231520Z 27016KT CAVOK 12/04 Q1025 TEMPO 27015G25KT

TAF TAF ELLX
Valide du 23 à 18h jusqu'au 25 à 00h UTC


231700Z 2318/2424 27013KT CAVOK
BECMG 2318/2321 24007KT
BECMG 2323/2402 4000 BR BKN008
TEMPO 2402/2409 0100 FG OVC001
PROB40
TEMPO 2409/2418 1200 -DZ BR BKN004
ATIS : +352 4798 27300
Météo : +352 4798 27010 / 27050
Pas de NOTAMs connus pour ce terrain.



MET'MAP, la Météo Aéronautique d'un coup d'oeil ! - Copyright ORBIFLY Décembre 2007 - Disclaimer

ORBIFLY MET'MAP TEAM :

Programmation & Développement : Alexandra Zaïnal
Conception & Développement : Baudouin d'Aumeries
Co-Programmation & Développement : Marc-Olivier Méhu
Soutien technique & logistique : Manuel Goepfert

Contact : metmap@orbifly.com




SOURCES & CREDITS :

   NOAA